Location: S�deilles
(46.7500°N, 6.9329°E)
Time: 17:31:57
(UTC+00:00)

USA 238 DEB - Pass Details

Date: 08 March 2021
Orbit: 995 x 1217 km, 63.4° (Epoch: 18 April)

Event Time Altitude Azimuth Distance (km) Brightness Sun altitude
Rises 19:34:25 0° 216° (SW) 3,717 6.8 -22.2°
Reaches altitude 10° 19:36:57 10° 216° (SW) 2,785 6.1 -22.6°
Maximum altitude 19:43:30 88° 130° (SE) 1,047 3.5 -23.6°
Drops below altitude 10° 19:50:26 10° 40° (NE) 2,930 5.8 -24.7°
Sets 19:53:10 0° 40° (NE) 3,922 6.5 -25.2°
